Location: Mountain View
(37.3861°N, 122.0839°W)
Time: 07:19:27
(UTC-07:00)

ACS3 Solar Sail - Visible Passes

Search period start: 10 May 2026 00:00
Search period end: 20 May 2026 00:00
Orbit: 890 x 951 km, 97.2° (Epoch: 8 May)

Date Brightness Start Highest point End Pass type
(mag) Time Alt. Az. Time Alt. Az. Time Alt. Az.
10 May 4.0 00:29:23 10° ENE 00:30:27 12° ENE 00:30:27 12° ENE visible
10 May 2.0 02:08:54 10° N 02:13:56 63° N 02:13:56 63° N visible
10 May 3.8 03:54:47 10° NW 03:56:16 11° WNW 03:57:26 10° WNW visible
11 May 3.8 00:37:12 10° NE 00:39:18 15° ENE 00:39:18 15° ENE visible
11 May 2.0 02:17:37 10° N 02:22:47 60° NW 02:22:47 60° NW visible
12 May 3.6 00:45:20 10° NE 00:48:08 18° ENE 00:48:08 18° ENE visible
12 May 2.1 02:26:22 10° N 02:31:38 53° NW 02:31:38 53° NW visible
13 May 3.4 00:53:36 10° NE 00:56:59 22° ENE 00:56:59 22° ENE visible
13 May 2.3 02:35:09 10° N 02:40:29 45° WNW 02:40:29 45° WNW visible
14 May 3.2 01:01:58 10° NE 01:05:50 27° ENE 01:05:50 27° ENE visible
14 May 2.5 02:43:59 10° N 02:49:19 38° WNW 02:49:19 38° WNW visible
15 May 2.9 01:10:25 10° NNE 01:14:41 32° ENE 01:14:41 32° ENE visible
15 May 2.7 02:52:51 10° N 02:58:03 32° WNW 02:58:10 32° WNW visible
16 May 2.7 01:18:56 10° NNE 01:23:32 39° ENE 01:23:32 39° ENE visible
16 May 3.0 03:01:45 10° NNW 03:06:40 27° WNW 03:07:01 27° WNW visible
17 May 2.4 01:27:29 10° NNE 01:32:22 47° ENE 01:32:22 47° ENE visible
17 May 3.2 03:10:43 10° NNW 03:15:14 23° WNW 03:15:52 22° WNW visible
18 May 2.1 01:36:04 10° NNE 01:41:13 57° ENE 01:41:13 57° ENE visible
18 May 3.4 03:19:47 10° NNW 03:23:48 19° WNW 03:24:43 18° WNW visible
19 May 1.9 01:44:43 10° NNE 01:50:04 67° NE 01:50:04 67° NE visible
19 May 3.6 03:28:58 10° NNW 03:32:21 16° WNW 03:33:34 15° WNW visible
